Time,TemperatureF,DewpointF,PressureIn,WindDirection,WindDirectionDegrees,WindSpeedMPH,WindSpeedGustMPH,Humidity,HourlyPrecipIn,Conditions,Clouds,dailyrainin,SolarRadiationWatts/m^2,SoftwareType,DateUTC
2013-01-07 00:02:00,33.0,33.0,-100.00,NW,317,3.0,5.0,100,0.00,,,0.00,0.000000,,2013-01-07 08:02:00,
2013-01-07 00:11:00,33.0,33.0,-100.00,NW,317,3.0,5.0,100,0.00,,,0.00,0.000000,,2013-01-07 08:11:00,
2013-01-07 00:43:00,33.0,33.0,-100.00,NW,317,3.0,8.0,100,0.00,,,0.00,0.000000,,2013-01-07 08:43:00,
2013-01-07 00:53:00,33.0,33.0,-100.00,NW,317,3.0,8.0,100,0.00,,,0.00,0.000000,,2013-01-07 08:53:00,
2013-01-07 01:02:00,33.0,33.0,-100.00,NW,317,3.0,8.0,100,0.00,,,0.00,0.000000,,2013-01-07 09:02:00,
2013-01-07 01:12:00,33.0,33.0,-100.00,NW,317,3.0,8.0,100,0.00,,,0.00,0.000000,,2013-01-07 09:12:00,
2013-01-07 01:32:00,32.0,32.0,-100.00,NW,313,4.0,10.0,100,0.00,,,0.00,0.000000,,2013-01-07 09:32:00,
2013-01-07 01:42:00,32.0,32.0,-100.00,NW,313,4.0,10.0,100,0.00,,,0.00,0.000000,,2013-01-07 09:42:00,
2013-01-07 01:52:00,32.0,32.0,-100.00,NW,313,4.0,10.0,100,0.00,,,0.00,0.000000,,2013-01-07 09:52:00,
2013-01-07 02:02:00,32.0,32.0,-100.00,NW,313,4.0,10.0,100,0.00,,,0.00,0.000000,,2013-01-07 10:02:00,
2013-01-07 02:12:00,32.0,32.0,-100.00,NW,313,4.0,10.0,100,0.00,,,0.00,0.000000,,2013-01-07 10:12:00,
2013-01-07 02:33:00,32.0,32.0,-100.00,NNW,332,3.0,6.0,100,0.01,,,0.01,0.000000,,2013-01-07 10:33:00,
2013-01-07 02:42:00,32.0,32.0,-100.00,NNW,332,3.0,6.0,100,0.01,,,0.01,0.000000,,2013-01-07 10:42:00,
2013-01-07 02:52:00,32.0,32.0,-100.00,NNW,332,3.0,6.0,100,0.01,,,0.01,0.000000,,2013-01-07 10:52:00,
2013-01-07 03:02:00,32.0,32.0,-100.00,NNW,332,3.0,6.0,100,0.01,,,0.01,0.000000,,2013-01-07 11:02:00,
2013-01-07 03:12:00,32.0,32.0,-100.00,NNW,332,3.0,6.0,100,0.01,,,0.01,0.000000,,2013-01-07 11:12:00,
2013-01-07 03:33:00,33.0,33.0,-100.00,SSE,165,2.0,5.0,100,0.01,,,0.02,0.000000,,2013-01-07 11:33:00,
2013-01-07 03:43:00,33.0,33.0,-100.00,SSE,165,2.0,5.0,100,0.01,,,0.02,0.000000,,2013-01-07 11:43:00,
2013-01-07 03:53:00,33.0,33.0,-100.00,SSE,165,2.0,5.0,100,0.01,,,0.02,0.000000,,2013-01-07 11:53:00,
2013-01-07 04:02:00,33.0,33.0,-100.00,SSE,165,2.0,5.0,100,0.01,,,0.02,0.000000,,2013-01-07 12:02:00,
2013-01-07 04:12:00,33.0,33.0,-100.00,SSE,165,2.0,5.0,100,0.01,,,0.02,0.000000,,2013-01-07 12:12:00,
2013-01-07 04:43:00,33.0,33.0,-100.00,West,272,3.0,6.0,100,0.00,,,0.02,0.000000,,2013-01-07 12:43:00,
2013-01-07 04:53:00,33.0,33.0,-100.00,West,272,3.0,6.0,100,0.00,,,0.02,0.000000,,2013-01-07 12:53:00,
2013-01-07 05:02:00,33.0,33.0,-100.00,West,272,3.0,6.0,100,0.00,,,0.02,0.000000,,2013-01-07 13:02:00,
2013-01-07 05:12:00,33.0,33.0,-100.00,West,272,3.0,6.0,100,0.00,,,0.02,0.000000,,2013-01-07 13:12:00,
2013-01-07 05:33:00,34.0,34.0,-100.00,WSW,243,2.0,8.0,100,0.01,,,0.03,0.000000,,2013-01-07 13:33:00,
2013-01-07 05:43:00,34.0,34.0,-100.00,WSW,243,2.0,8.0,100,0.01,,,0.03,0.000000,,2013-01-07 13:43:00,
2013-01-07 05:53:00,34.0,34.0,-100.00,WSW,243,2.0,8.0,100,0.01,,,0.03,0.000000,,2013-01-07 13:53:00,
2013-01-07 06:03:00,34.0,34.0,-100.00,WSW,243,2.0,8.0,100,0.01,,,0.03,0.000000,,2013-01-07 14:03:00,
2013-01-07 06:12:00,34.0,34.0,-100.00,WSW,243,2.0,8.0,100,0.01,,,0.03,0.000000,,2013-01-07 14:12:00,
2013-01-07 06:33:00,33.0,33.0,-100.00,SSE,159,2.0,5.0,100,0.00,,,0.03,0.000000,,2013-01-07 14:33:00,
2013-01-07 06:43:00,33.0,33.0,-100.00,SSE,159,2.0,5.0,100,0.00,,,0.03,0.000000,,2013-01-07 14:43:00,
2013-01-07 06:53:00,33.0,33.0,-100.00,SSE,159,2.0,5.0,100,0.00,,,0.03,0.000000,,2013-01-07 14:53:00,
2013-01-07 07:02:00,33.0,33.0,-100.00,SSE,159,2.0,5.0,100,0.00,,,0.03,0.000000,,2013-01-07 15:02:00,
2013-01-07 07:11:00,33.0,33.0,-100.00,SSE,159,2.0,5.0,100,0.00,,,0.03,0.000000,,2013-01-07 15:11:00,
2013-01-07 07:33:00,33.0,33.0,-100.00,SW,216,3.0,5.0,100,0.01,,,0.04,0.000000,,2013-01-07 15:33:00,
2013-01-07 07:43:00,33.0,33.0,-100.00,SW,216,3.0,5.0,100,0.01,,,0.04,0.000000,,2013-01-07 15:43:00,
2013-01-07 07:53:00,33.0,33.0,-100.00,SW,216,3.0,5.0,100,0.01,,,0.04,0.000000,,2013-01-07 15:53:00,
2013-01-07 08:02:00,33.0,33.0,-100.00,SW,216,3.0,5.0,100,0.01,,,0.04,0.000000,,2013-01-07 16:02:00,
2013-01-07 08:12:00,33.0,33.0,-100.00,SW,216,3.0,5.0,100,0.01,,,0.04,0.000000,,2013-01-07 16:12:00,
2013-01-07 08:33:00,35.0,35.0,-100.00,NW,322,4.0,10.0,100,0.00,,,0.04,3.000000,,2013-01-07 16:33:00,
2013-01-07 08:43:00,35.0,35.0,-100.00,NW,322,4.0,10.0,100,0.00,,,0.04,3.000000,,2013-01-07 16:43:00,
2013-01-07 08:53:00,35.0,35.0,-100.00,NW,322,4.0,10.0,100,0.00,,,0.04,3.000000,,2013-01-07 16:53:00,
2013-01-07 09:02:00,35.0,35.0,-100.00,NW,322,4.0,10.0,100,0.00,,,0.04,3.000000,,2013-01-07 17:02:00,
2013-01-07 09:12:00,35.0,35.0,-100.00,NW,322,4.0,10.0,100,0.00,,,0.04,3.000000,,2013-01-07 17:12:00,
2013-01-07 09:33:00,37.0,37.0,-100.00,NW,323,7.0,14.0,100,0.01,,,0.05,38.000000,,2013-01-07 17:33:00,
2013-01-07 09:42:00,37.0,37.0,-100.00,NW,323,7.0,14.0,100,0.01,,,0.05,38.000000,,2013-01-07 17:42:00,
2013-01-07 09:53:00,37.0,37.0,-100.00,NW,323,7.0,14.0,100,0.01,,,0.05,38.000000,,2013-01-07 17:53:00,
2013-01-07 10:02:00,37.0,37.0,-100.00,NW,323,7.0,14.0,100,0.01,,,0.05,38.000000,,2013-01-07 18:02:00,
2013-01-07 10:12:00,37.0,37.0,-100.00,NW,323,7.0,14.0,100,0.01,,,0.05,38.000000,,2013-01-07 18:12:00,
2013-01-07 10:33:00,38.0,38.0,-100.00,NW,309,9.0,21.0,100,0.00,,,0.05,87.000000,,2013-01-07 18:33:00,
2013-01-07 10:43:00,38.0,38.0,-100.00,NW,309,9.0,21.0,100,0.00,,,0.05,87.000000,,2013-01-07 18:43:00,
2013-01-07 10:53:00,38.0,38.0,-100.00,NW,309,9.0,21.0,100,0.00,,,0.05,87.000000,,2013-01-07 18:53:00,
2013-01-07 11:03:00,38.0,38.0,-100.00,NW,309,9.0,21.0,100,0.00,,,0.05,87.000000,,2013-01-07 19:03:00,
2013-01-07 11:12:00,38.0,38.0,-100.00,NW,309,9.0,21.0,100,0.00,,,0.05,87.000000,,2013-01-07 19:12:00,
2013-01-07 11:43:00,44.0,44.0,-100.00,WNW,293,12.0,32.0,100,0.00,,,0.05,230.000000,,2013-01-07 19:43:00,
2013-01-07 11:53:00,44.0,44.0,-100.00,WNW,293,12.0,32.0,100,0.00,,,0.05,230.000000,,2013-01-07 19:53:00,
2013-01-07 12:02:00,44.0,44.0,-100.00,WNW,293,12.0,32.0,100,0.00,,,0.05,230.000000,,2013-01-07 20:02:00,
2013-01-07 12:12:00,44.0,44.0,-100.00,WNW,293,12.0,32.0,100,0.00,,,0.05,230.000000,,2013-01-07 20:12:00,
2013-01-07 12:43:00,45.0,42.0,-100.00,WNW,287,18.0,47.0,89,0.00,,,0.05,303.000000,,2013-01-07 20:43:00,
2013-01-07 12:53:00,45.0,42.0,-100.00,WNW,287,18.0,47.0,89,0.00,,,0.05,303.000000,,2013-01-07 20:53:00,
2013-01-07 13:02:00,45.0,42.0,-100.00,WNW,287,18.0,47.0,89,0.00,,,0.05,303.000000,,2013-01-07 21:02:00,
2013-01-07 13:12:00,45.0,42.0,-100.00,WNW,287,18.0,47.0,89,0.00,,,0.05,303.000000,,2013-01-07 21:12:00,
2013-01-07 13:33:00,46.0,41.0,-100.00,WNW,293,20.0,41.0,84,0.00,,,0.05,360.000000,,2013-01-07 21:33:00,
2013-01-07 13:43:00,46.0,41.0,-100.00,WNW,293,20.0,41.0,84,0.00,,,0.05,360.000000,,2013-01-07 21:43:00,
2013-01-07 13:53:00,46.0,41.0,-100.00,WNW,293,20.0,41.0,84,0.00,,,0.05,360.000000,,2013-01-07 21:53:00,
2013-01-07 14:02:00,46.0,41.0,-100.00,WNW,293,20.0,41.0,84,0.00,,,0.05,360.000000,,2013-01-07 22:02:00,
2013-01-07 14:12:00,46.0,41.0,-100.00,WNW,293,20.0,41.0,84,0.00,,,0.05,360.000000,,2013-01-07 22:12:00,
2013-01-07 14:43:00,47.0,41.0,-100.00,WNW,295,20.0,44.0,80,0.00,,,0.05,295.000000,,2013-01-07 22:43:00,
2013-01-07 14:53:00,47.0,41.0,-100.00,WNW,295,20.0,44.0,80,0.00,,,0.05,295.000000,,2013-01-07 22:53:00,
2013-01-07 15:02:00,47.0,41.0,-100.00,WNW,295,20.0,44.0,80,0.00,,,0.05,295.000000,,2013-01-07 23:02:00,
2013-01-07 15:12:00,47.0,41.0,-100.00,WNW,295,20.0,44.0,80,0.00,,,0.05,295.000000,,2013-01-07 23:12:00,
2013-01-07 15:33:00,46.0,39.0,-100.00,WNW,295,19.0,48.0,76,0.00,,,0.05,203.000000,,2013-01-07 23:33:00,
2013-01-07 15:43:00,46.0,39.0,-100.00,WNW,295,19.0,48.0,76,0.00,,,0.05,203.000000,,2013-01-07 23:43:00,
2013-01-07 15:53:00,46.0,39.0,-100.00,WNW,295,19.0,48.0,76,0.00,,,0.05,203.000000,,2013-01-07 23:53:00,
2013-01-07 16:02:00,46.0,39.0,-100.00,WNW,295,19.0,48.0,76,0.00,,,0.05,203.000000,,2013-01-08 00:02:00,
2013-01-07 16:12:00,46.0,39.0,-100.00,WNW,295,19.0,48.0,76,0.00,,,0.05,203.000000,,2013-01-08 00:12:00,
2013-01-07 16:33:00,44.0,39.0,-100.00,WNW,303,12.0,45.0,82,0.00,,,0.05,60.000000,,2013-01-08 00:33:00,
2013-01-07 16:42:00,44.0,39.0,-100.00,WNW,303,12.0,45.0,82,0.00,,,0.05,60.000000,,2013-01-08 00:42:00,
2013-01-07 16:52:00,44.0,39.0,-100.00,WNW,303,12.0,45.0,82,0.00,,,0.05,60.000000,,2013-01-08 00:52:00,
2013-01-07 17:02:00,44.0,39.0,-100.00,WNW,303,12.0,45.0,82,0.00,,,0.05,60.000000,,2013-01-08 01:02:00,
2013-01-07 17:12:00,44.0,39.0,-100.00,WNW,303,12.0,45.0,82,0.00,,,0.05,60.000000,,2013-01-08 01:12:00,
2013-01-07 17:33:00,43.0,37.0,-100.00,NW,308,13.0,30.0,80,0.00,,,0.05,5.000000,,2013-01-08 01:33:00,
2013-01-07 17:42:00,43.0,37.0,-100.00,NW,308,13.0,30.0,80,0.00,,,0.05,5.000000,,2013-01-08 01:42:00,
2013-01-07 17:52:00,43.0,37.0,-100.00,NW,308,13.0,30.0,80,0.00,,,0.05,5.000000,,2013-01-08 01:52:00,
2013-01-07 18:02:00,43.0,37.0,-100.00,NW,308,13.0,30.0,80,0.00,,,0.05,5.000000,,2013-01-08 02:02:00,
2013-01-07 18:12:00,43.0,37.0,-100.00,NW,308,13.0,30.0,80,0.00,,,0.05,5.000000,,2013-01-08 02:12:00,
2013-01-07 18:33:00,42.0,37.0,-100.00,WNW,299,13.0,29.0,83,0.00,,,0.05,0.000000,,2013-01-08 02:33:00,
2013-01-07 18:43:00,42.0,37.0,-100.00,WNW,299,13.0,29.0,83,0.00,,,0.05,0.000000,,2013-01-08 02:43:00,
2013-01-07 18:53:00,42.0,37.0,-100.00,WNW,299,13.0,29.0,83,0.00,,,0.05,0.000000,,2013-01-08 02:53:00,
2013-01-07 19:02:00,42.0,37.0,-100.00,WNW,299,13.0,29.0,83,0.00,,,0.05,0.000000,,2013-01-08 03:02:00,
2013-01-07 19:12:00,42.0,37.0,-100.00,WNW,299,13.0,29.0,83,0.00,,,0.05,0.000000,,2013-01-08 03:12:00,
2013-01-07 19:33:00,43.0,37.0,-100.00,WNW,289,22.0,38.0,80,0.00,,,0.05,0.000000,,2013-01-08 03:33:00,
2013-01-07 19:43:00,43.0,37.0,-100.00,WNW,289,22.0,38.0,80,0.00,,,0.05,0.000000,,2013-01-08 03:43:00,
2013-01-07 19:53:00,43.0,37.0,-100.00,WNW,289,22.0,38.0,80,0.00,,,0.05,0.000000,,2013-01-08 03:53:00,
2013-01-07 20:02:00,43.0,37.0,-100.00,WNW,289,22.0,38.0,80,0.00,,,0.05,0.000000,,2013-01-08 04:02:00,
2013-01-07 20:12:00,43.0,37.0,-100.00,WNW,289,22.0,38.0,80,0.00,,,0.05,0.000000,,2013-01-08 04:12:00,
2013-01-07 20:32:00,42.0,37.0,-100.00,WNW,291,20.0,41.0,82,0.00,,,0.05,0.000000,,2013-01-08 04:32:00,
2013-01-07 20:43:00,42.0,37.0,-100.00,WNW,291,20.0,41.0,82,0.00,,,0.05,0.000000,,2013-01-08 04:43:00,
2013-01-07 20:52:00,42.0,37.0,-100.00,WNW,291,20.0,41.0,82,0.00,,,0.05,0.000000,,2013-01-08 04:52:00,
2013-01-07 21:03:00,42.0,37.0,-100.00,WNW,291,20.0,41.0,82,0.00,,,0.05,0.000000,,2013-01-08 05:03:00,
2013-01-07 21:12:00,42.0,37.0,-100.00,WNW,291,20.0,41.0,82,0.00,,,0.05,0.000000,,2013-01-08 05:12:00,
2013-01-07 21:33:00,41.0,35.0,-100.00,WNW,293,18.0,38.0,79,0.00,,,0.05,0.000000,,2013-01-08 05:33:00,
2013-01-07 21:43:00,41.0,35.0,-100.00,WNW,293,18.0,38.0,79,0.00,,,0.05,0.000000,,2013-01-08 05:43:00,
2013-01-07 21:53:00,41.0,35.0,-100.00,WNW,293,18.0,38.0,79,0.00,,,0.05,0.000000,,2013-01-08 05:53:00,
2013-01-07 22:02:00,41.0,35.0,-100.00,WNW,293,18.0,38.0,79,0.00,,,0.05,0.000000,,2013-01-08 06:02:00,
2013-01-07 22:12:00,41.0,35.0,-100.00,WNW,293,18.0,38.0,79,0.00,,,0.05,0.000000,,2013-01-08 06:12:00,
2013-01-07 22:33:00,41.0,36.0,-100.00,WNW,294,13.0,36.0,82,0.00,,,0.05,0.000000,,2013-01-08 06:33:00,
2013-01-07 22:43:00,41.0,36.0,-100.00,WNW,294,13.0,36.0,82,0.00,,,0.05,0.000000,,2013-01-08 06:43:00,
2013-01-07 22:52:00,41.0,36.0,-100.00,WNW,294,13.0,36.0,82,0.00,,,0.05,0.000000,,2013-01-08 06:52:00,
2013-01-07 23:02:00,41.0,36.0,-100.00,WNW,294,13.0,36.0,82,0.00,,,0.05,0.000000,,2013-01-08 07:02:00,
2013-01-07 23:11:00,41.0,36.0,-100.00,WNW,294,13.0,36.0,82,0.00,,,0.05,0.000000,,2013-01-08 07:11:00,
2013-01-07 23:32:00,39.0,37.0,-100.00,NW,307,7.0,27.0,91,0.00,,,0.05,0.000000,,2013-01-08 07:32:00,
2013-01-07 23:42:00,39.0,37.0,-100.00,NW,307,7.0,27.0,91,0.00,,,0.05,0.000000,,2013-01-08 07:42:00,
2013-01-07 23:52:00,39.0,37.0,-100.00,NW,307,7.0,27.0,91,0.00,,,0.05,0.000000,,2013-01-08 07:52:00,